Regional Weather Roundup
Issued by NWS

Home | Current Version | Previous Version | Text Only | Print | Product List | Glossary Off
Versions: 1 2 3 4 5 6 7 8 9 10 11 12 13 14 15 16 17 18 19 20 21 22 23 24 25 26 27

000
ASUS45 KBOU 231007
RWRCO

WEATHER ROUNDUP FOR COLORADO
NATIONAL WEATHER SERVICE DENVER/BOULDER CO
400 AM MDT THU OCT 23 2014

NOTE: "FAIR" INDICATES FEW OR NO CLOUDS BELOW 12000 FEET WITH NO
SIGNIFICANT WEATHER AND/OR OBSTRUCTIONS TO VISIBILITY.

COZ001>005-013-030-031-231100-
...NORTHWEST COLORADO...

CITY           SKY/WX    TMP DP  RH WIND       PRES   REMARKS
CRAIG          CLEAR     30  27  88 CALM      30.26F
HAYDEN         CLEAR     36  30  80 E10       30.26S
MEEKER         CLEAR     37  32  82 E7        30.27S
MOUNT WERNER   NOT AVBL
STEAMBOAT SPGS CLEAR     33  31  93 CALM      30.28S
WALDEN         PTCLDY    30  27  86 SE7       30.28S WCI  23
$$

COZ006>008-011-231100-
...WEST CENTRAL VALLEYS...

CITY           SKY/WX    TMP DP  RH WIND       PRES   REMARKS
GRAND JUNCTION CLEAR     44  37  76 E5        30.20S
MONTROSE       CLEAR     41  35  79 S6        30.27R
EAGLE          CLEAR     34  34 100 CALM      30.33S
RIFLE          CLEAR     38  34  85 CALM      30.26S
DELTA          CLEAR     46  35  65 NE9       30.24S
NUCLA          NOT AVBL
$$

COZ017>023-064>068-231100-
...SOUTHWEST COLORADO...

CITY           SKY/WX    TMP DP  RH WIND       PRES   REMARKS
DURANGO        CLEAR     35  33  92 NE3       30.27S
CORTEZ         CLEAR     35  31  85 CALM      30.26S
PAGOSA SPRINGS CLEAR     36  35  96 CALM      30.32R
TELLURIDE      PTCLDY    37  32  81 E6        30.41R
WOLF CREEK PAS CLEAR     32  25  74 W7          N/A  WCI  26
$$

COZ009-010-012-014-032>034-037-058>063-231100-
...CENTRAL COLORADO...

CITY           SKY/WX    TMP DP  RH WIND       PRES   REMARKS
ASPEN          CLEAR     33  29  85 SW8       30.32S WCI  26
BUENA VISTA    CLEAR     34  29  80 SE5       30.31S WCI  30
COPPER MTN     CLEAR     34  27  75 W13G18    30.45S WCI  25
BERTHOUD PASS  FAIR      27  23  86 NW33G44   30.41F WCI   9
COTTONWOOD PAS CLEAR     41  23  48 N5G16     30.36S
GUNNISON       CLEAR     32  27  80 CALM      30.37R
KREMMLING      CLEAR     30  28  93 CALM        N/A
LEADVILLE      CLEAR     35  24  64 VRB3      30.37S
MONARCH PASS   FOG       30  30 100 W28       30.54S VSB<1/4 WCI  16
SALIDA         CLEAR     42  32  67 NW8       30.37S
SUNLIGHT       CLEAR     34  32  93 CALM      30.43F
WILKERSON PASS NOT AVBL
$$

COZ069>075-231100-
...SAN LUIS VALLEY/SANGRE DE CRISTO MOUNTAINS...

CITY           SKY/WX    TMP DP  RH WIND       PRES   REMARKS
ALAMOSA        PTCLDY    31  27  85 SW3       30.29S
LA VETA PASS   PTCLDY    34  30  86 S12G18    30.35F WCI  25
SAGUACHE       CLEAR     37  32  81 NW5       30.31F
$$

COZ035-036-038>040-231100-
...NORTHERN COLORADO FRONT RANGE...

CITY           SKY/WX    TMP DP  RH WIND       PRES   REMARKS
DENVER INTL AP PTCLDY    44  37  76 SW9       30.15F
DMNS CITY PARK   N/A     43  39  85 SE1       30.15S
AURORA         PTCLDY    45  39  78 CALM      30.17F
FRONT RANGE AP CLEAR     46  39  76 SW9       30.16S
ERIE MUNI ARPT CLEAR     38  36  90 S3        30.14F
BOULDER MUN AP CLEAR     43  37  81 SW6       30.14S
CENTENNIAL     PTCLDY    43  35  73 S5        30.17S
BROOMFIELD     CLEAR     46  36  66 CALM      30.17R
FORT COLLINS   CLEAR     37  32  81 CALM      30.16S
LONGMONT       CLEAR     38  33  83 CALM      30.16F
$$

COZ041-046-047-076>085-087-088-231100-
...PIKES PEAK/PALMER DIVIDE AND SOUTHERN FOOTHILLS...

CITY           SKY/WX    TMP DP  RH WIND       PRES   REMARKS
COLO. SPRINGS  CLEAR     43  39  86 N10       30.21R
A. F. ACADEMY  CLEAR     37  34  90 NE6       30.21F
ELLICOTT       NOT AVBL
FALCON         CLEAR     38  37  94 NW7       30.23F
FORT CARSON    CLEAR     44  37  78 NW12      30.18S
LIMON          CLEAR     39  38  96 NE5       30.17R
MONUMENT HILL  CLEAR     41  34  75 SW8       30.21F
TRINIDAD       CLEAR     46  36  68 W12       30.17S
$$

COZ042>045-048>051-090-091-231100-
...NORTHEAST COLORADO...

CITY           SKY/WX    TMP DP  RH WIND       PRES   REMARKS
GREELEY ARPT   CLEAR     36  27  69 NW5       30.14F
AKRON          CLEAR     46  38  73 SW9       30.12S
BURLINGTON     MOCLDY    45  41  86 W5        30.12S
WRAY           CLEAR     40  33  76 SW6       30.12R
STERLING       CLEAR     39  36  87 CALM      30.12S
HOLYOKE        CLEAR     43  34  70 W6        30.11S
FORT MORGAN    CLEAR     42  33  70 W7        30.13S
$$

COZ086-089-092>099-231100-
...SOUTHEAST COLORADO...

CITY           SKY/WX    TMP DP  RH WIND       PRES   REMARKS
PUEBLO         CLEAR     46  40  79 CALM      30.15R
LA JUNTA       CLEAR     47  43  86 N5        30.11S
LAMAR          CLEAR     45  43  93 CALM      30.08S
SPRINGFIELD      N/A     49  46  90 W3        30.09F
$$



USA.gov is the U.S. government's official web portal to all federal, state and local government web resources and services.